Year,Month,Day,Hour,Minute,Value (Times are PST for temperature in C)
2015,04,16,00,00,5.50
2015,04,16,00,01,5.40
2015,04,16,00,02,5.40
2015,04,16,00,03,5.40
2015,04,16,00,04,5.40
2015,04,16,00,05,5.40
2015,04,16,00,06,5.40
2015,04,16,00,07,5.40
2015,04,16,00,08,5.40
2015,04,16,00,09,5.40
2015,04,16,00,10,5.50
2015,04,16,00,11,5.50
2015,04,16,00,12,5.50
2015,04,16,00,13,5.50
2015,04,16,00,14,5.40
2015,04,16,00,15,5.40
2015,04,16,00,16,5.40
2015,04,16,00,17,5.50
2015,04,16,00,18,5.50
2015,04,16,00,19,5.50
2015,04,16,00,20,5.40
2015,04,16,00,21,5.40
2015,04,16,00,22,5.40
2015,04,16,00,23,5.40
2015,04,16,00,24,5.40
2015,04,16,00,25,5.50
2015,04,16,00,26,5.50
2015,04,16,00,27,5.50
2015,04,16,00,28,5.50
2015,04,16,00,29,5.40
2015,04,16,00,30,5.40
2015,04,16,00,31,5.40
2015,04,16,00,32,5.40
2015,04,16,00,33,5.40
2015,04,16,00,34,5.30
2015,04,16,00,35,5.30
2015,04,16,00,36,5.30
2015,04,16,00,37,5.30
2015,04,16,00,38,5.30
2015,04,16,00,39,5.30
2015,04,16,00,40,5.30
2015,04,16,00,41,5.30
2015,04,16,00,42,5.30
2015,04,16,00,43,5.30
2015,04,16,00,44,5.30
2015,04,16,00,45,5.20
2015,04,16,00,46,5.20
2015,04,16,00,47,5.20
2015,04,16,00,48,5.20
2015,04,16,00,49,5.20
2015,04,16,00,50,5.20
2015,04,16,00,51,5.20
2015,04,16,00,52,5.20
2015,04,16,00,53,5.20
2015,04,16,00,54,5.10
2015,04,16,00,55,5.10
2015,04,16,00,56,5.10
2015,04,16,00,57,5.10
2015,04,16,00,58,5.00
2015,04,16,00,59,5.00
2015,04,16,01,00,4.90
2015,04,16,01,01,4.90
2015,04,16,01,02,4.90
2015,04,16,01,03,4.90
2015,04,16,01,04,4.90
2015,04,16,01,05,4.90
2015,04,16,01,06,4.90
2015,04,16,01,07,5.00
2015,04,16,01,08,5.00
2015,04,16,01,09,5.00
2015,04,16,01,10,5.00
2015,04,16,01,11,5.00
2015,04,16,01,12,5.00
2015,04,16,01,13,5.00
2015,04,16,01,14,5.00
2015,04,16,01,15,5.00
2015,04,16,01,16,5.00
2015,04,16,01,17,5.00
2015,04,16,01,18,5.00
2015,04,16,01,19,5.00
2015,04,16,01,20,5.00
2015,04,16,01,21,5.00
2015,04,16,01,22,5.00
2015,04,16,01,23,5.00
2015,04,16,01,24,5.00
2015,04,16,01,25,5.00
2015,04,16,01,26,5.00
2015,04,16,01,27,5.00
2015,04,16,01,28,5.00
2015,04,16,01,29,5.10
2015,04,16,01,30,5.10
2015,04,16,01,31,5.10
2015,04,16,01,32,5.10
2015,04,16,01,33,5.10
2015,04,16,01,34,5.10
2015,04,16,01,35,5.20
2015,04,16,01,36,5.20
2015,04,16,01,37,5.20
2015,04,16,01,38,5.20
2015,04,16,01,39,5.20
2015,04,16,01,40,5.30
2015,04,16,01,41,5.30
2015,04,16,01,42,5.30
2015,04,16,01,43,5.30
2015,04,16,01,44,5.30
2015,04,16,01,45,5.30
2015,04,16,01,46,5.30
2015,04,16,01,47,5.30
2015,04,16,01,48,5.30
2015,04,16,01,49,5.40
2015,04,16,01,50,5.40
2015,04,16,01,51,5.40
2015,04,16,01,52,5.40
2015,04,16,01,53,5.40
2015,04,16,01,54,5.40
2015,04,16,01,55,5.40
2015,04,16,01,56,5.40
2015,04,16,01,57,5.40
2015,04,16,01,58,5.40
2015,04,16,01,59,5.40
2015,04,16,02,00,5.40
2015,04,16,02,01,5.40
2015,04,16,02,02,5.40
2015,04,16,02,03,5.40
2015,04,16,02,04,5.40
2015,04,16,02,05,5.40
2015,04,16,02,06,5.40
2015,04,16,02,07,5.40
2015,04,16,02,08,5.40
2015,04,16,02,09,5.40
2015,04,16,02,10,5.40
2015,04,16,02,11,5.40
2015,04,16,02,12,5.40
2015,04,16,02,13,5.40
2015,04,16,02,14,5.40
2015,04,16,02,15,5.50
2015,04,16,02,16,5.50
2015,04,16,02,17,5.50
2015,04,16,02,18,5.50
2015,04,16,02,19,5.50
2015,04,16,02,20,5.60
2015,04,16,02,21,5.60
2015,04,16,02,22,5.60
2015,04,16,02,23,5.60
2015,04,16,02,24,5.60
2015,04,16,02,25,5.60
2015,04,16,02,26,5.60
2015,04,16,02,27,5.60
2015,04,16,02,28,5.60
2015,04,16,02,29,5.60
2015,04,16,02,30,5.60
2015,04,16,02,31,5.60
2015,04,16,02,32,5.60
2015,04,16,02,33,5.70
2015,04,16,02,34,5.70
2015,04,16,02,35,5.70
2015,04,16,02,36,5.70
2015,04,16,02,37,5.70
2015,04,16,02,38,5.70
2015,04,16,02,39,5.70
2015,04,16,02,40,5.70
2015,04,16,02,41,5.70
2015,04,16,02,42,5.70
2015,04,16,02,43,5.70
2015,04,16,02,44,5.70
2015,04,16,02,45,5.70
2015,04,16,02,46,5.70
2015,04,16,02,47,5.70
2015,04,16,02,48,5.70
2015,04,16,02,49,5.70
2015,04,16,02,50,5.70
2015,04,16,02,51,5.70
2015,04,16,02,52,5.70
2015,04,16,02,53,5.70
2015,04,16,02,54,5.70
2015,04,16,02,55,5.70
2015,04,16,02,56,5.70
2015,04,16,02,57,5.70
2015,04,16,02,58,5.70
2015,04,16,02,59,5.70
2015,04,16,03,00,5.70
2015,04,16,03,01,5.70
2015,04,16,03,02,5.70
2015,04,16,03,03,5.70
2015,04,16,03,04,5.70
2015,04,16,03,05,5.70
2015,04,16,03,06,5.70
2015,04,16,03,07,5.70
2015,04,16,03,08,5.70
2015,04,16,03,09,5.70
2015,04,16,03,10,5.70
2015,04,16,03,11,5.70
2015,04,16,03,12,5.70
2015,04,16,03,13,5.70
2015,04,16,03,14,5.70
2015,04,16,03,15,5.70
2015,04,16,03,16,5.70
2015,04,16,03,17,5.70
2015,04,16,03,18,5.60
2015,04,16,03,19,5.60
2015,04,16,03,20,5.60
2015,04,16,03,21,5.60
2015,04,16,03,22,5.60
2015,04,16,03,23,5.50
2015,04,16,03,24,5.50
2015,04,16,03,25,5.50
2015,04,16,03,26,5.40
2015,04,16,03,27,5.40
2015,04,16,03,28,5.40
2015,04,16,03,29,5.40
2015,04,16,03,30,5.40
2015,04,16,03,31,5.30
2015,04,16,03,32,5.30
2015,04,16,03,33,5.30
2015,04,16,03,34,5.30
2015,04,16,03,35,5.30
2015,04,16,03,36,5.30
2015,04,16,03,37,5.30
2015,04,16,03,38,5.30
2015,04,16,03,39,5.20
2015,04,16,03,40,5.20
2015,04,16,03,41,5.20
2015,04,16,03,42,5.20
2015,04,16,03,43,5.20
2015,04,16,03,44,5.20
2015,04,16,03,45,5.20
2015,04,16,03,46,5.30
2015,04,16,03,47,5.30
2015,04,16,03,48,5.30
2015,04,16,03,49,5.30
2015,04,16,03,50,5.30
2015,04,16,03,51,5.30
2015,04,16,03,52,5.20
2015,04,16,03,53,5.20
2015,04,16,03,54,5.20
2015,04,16,03,55,5.20
2015,04,16,03,56,5.20
2015,04,16,03,57,5.10
2015,04,16,03,58,5.10
2015,04,16,03,59,5.00
2015,04,16,04,00,5.00
2015,04,16,04,01,4.90
2015,04,16,04,02,4.90
2015,04,16,04,03,4.90
2015,04,16,04,04,4.80
2015,04,16,04,05,4.80
2015,04,16,04,06,4.80
2015,04,16,04,07,4.80
2015,04,16,04,08,4.80
2015,04,16,04,09,4.80
2015,04,16,04,10,4.80
2015,04,16,04,11,4.80
2015,04,16,04,12,4.80
2015,04,16,04,13,4.80
2015,04,16,04,14,4.70
2015,04,16,04,15,4.70
2015,04,16,04,16,4.70
2015,04,16,04,17,4.70
2015,04,16,04,18,4.70
2015,04,16,04,19,4.70
2015,04,16,04,20,4.60
2015,04,16,04,21,4.60
2015,04,16,04,22,4.60
2015,04,16,04,23,4.60
2015,04,16,04,24,4.60
2015,04,16,04,25,4.60
2015,04,16,04,26,4.60
2015,04,16,04,27,4.60
2015,04,16,04,28,4.60
2015,04,16,04,29,4.60
2015,04,16,04,30,4.60
2015,04,16,04,31,4.60
2015,04,16,04,32,4.50
2015,04,16,04,33,4.50
2015,04,16,04,34,4.50
2015,04,16,04,35,4.50
2015,04,16,04,36,4.50
2015,04,16,04,37,4.40
2015,04,16,04,38,4.50
2015,04,16,04,39,4.50
2015,04,16,04,40,4.50
2015,04,16,04,41,4.60
2015,04,16,04,42,4.60
2015,04,16,04,43,4.60
2015,04,16,04,44,4.60
2015,04,16,04,45,4.70
2015,04,16,04,46,4.70
2015,04,16,04,47,4.70
2015,04,16,04,48,4.70
2015,04,16,04,49,4.70
2015,04,16,04,50,4.70
2015,04,16,04,51,4.70
2015,04,16,04,52,4.70
2015,04,16,04,53,4.60
2015,04,16,04,54,4.60
2015,04,16,04,55,4.60
2015,04,16,04,56,4.60
2015,04,16,04,57,4.60
2015,04,16,04,58,4.60
2015,04,16,04,59,4.50
2015,04,16,05,00,4.50
2015,04,16,05,01,4.40
2015,04,16,05,02,4.40
2015,04,16,05,03,4.40
2015,04,16,05,04,4.30
2015,04,16,05,05,4.30
2015,04,16,05,06,4.30
2015,04,16,05,07,4.30
2015,04,16,05,08,4.30
2015,04,16,05,09,4.30
2015,04,16,05,10,4.30
2015,04,16,05,11,4.30
2015,04,16,05,12,4.30
2015,04,16,05,13,4.30
2015,04,16,05,14,4.30
2015,04,16,05,15,4.30
2015,04,16,05,16,4.30
2015,04,16,05,17,4.30
2015,04,16,05,18,4.20
2015,04,16,05,19,4.20
2015,04,16,05,20,4.20
2015,04,16,05,21,4.20
2015,04,16,05,22,4.20
2015,04,16,05,23,4.20
2015,04,16,05,24,4.20
2015,04,16,05,25,4.20
2015,04,16,05,26,4.20
2015,04,16,05,27,4.20
2015,04,16,05,28,4.20
2015,04,16,05,29,4.20
2015,04,16,05,30,4.20
2015,04,16,05,31,4.20
2015,04,16,05,32,4.30
2015,04,16,05,33,4.30
2015,04,16,05,34,4.30
2015,04,16,05,35,4.30
2015,04,16,05,36,4.30
2015,04,16,05,37,4.30
2015,04,16,05,38,4.30
2015,04,16,05,39,4.30
2015,04,16,05,40,4.30
2015,04,16,05,41,4.30
2015,04,16,05,42,4.30
2015,04,16,05,43,4.20
2015,04,16,05,44,4.20
2015,04,16,05,45,4.20
2015,04,16,05,46,4.10
2015,04,16,05,47,4.10
2015,04,16,05,48,4.10
2015,04,16,05,49,4.10
2015,04,16,05,50,4.00
2015,04,16,05,51,4.10
2015,04,16,05,52,4.10
2015,04,16,05,53,4.10
2015,04,16,05,54,4.00
2015,04,16,05,55,4.00
2015,04,16,05,56,4.10
2015,04,16,05,57,4.10
2015,04,16,05,58,4.00
2015,04,16,05,59,4.00
2015,04,16,06,00,4.00
2015,04,16,06,01,3.90
2015,04,16,06,02,3.90
2015,04,16,06,03,3.90
2015,04,16,06,04,3.80
2015,04,16,06,05,3.80
2015,04,16,06,06,3.80
2015,04,16,06,07,3.70
2015,04,16,06,08,3.70
2015,04,16,06,09,3.60
2015,04,16,06,10,3.60
2015,04,16,06,11,3.60
2015,04,16,06,12,3.70
2015,04,16,06,13,3.70
2015,04,16,06,14,3.70
2015,04,16,06,15,3.70
2015,04,16,06,16,3.70
2015,04,16,06,17,3.70
2015,04,16,06,18,3.70
2015,04,16,06,19,3.70
2015,04,16,06,20,3.70
2015,04,16,06,21,3.70
2015,04,16,06,22,3.70
2015,04,16,06,23,3.70
2015,04,16,06,24,3.70
2015,04,16,06,25,3.70
2015,04,16,06,26,3.70
2015,04,16,06,27,3.70
2015,04,16,06,28,3.70
2015,04,16,06,29,3.70
2015,04,16,06,30,3.70
2015,04,16,06,31,3.70
2015,04,16,06,32,3.70
2015,04,16,06,33,3.70
2015,04,16,06,34,3.70
2015,04,16,06,35,3.70
2015,04,16,06,36,3.70
2015,04,16,06,37,3.70
2015,04,16,06,38,3.70
2015,04,16,06,39,3.70
2015,04,16,06,40,3.70
2015,04,16,06,41,3.70
2015,04,16,06,42,3.70
2015,04,16,06,43,3.70
2015,04,16,06,44,3.80
2015,04,16,06,45,3.80
2015,04,16,06,46,3.80
2015,04,16,06,47,3.80
2015,04,16,06,48,3.80
2015,04,16,06,49,3.80
2015,04,16,06,50,3.80
2015,04,16,06,51,3.80
2015,04,16,06,52,3.80
2015,04,16,06,53,3.80
2015,04,16,06,54,3.80
2015,04,16,06,55,3.80
2015,04,16,06,56,3.80
2015,04,16,06,57,3.80
2015,04,16,06,58,3.80
2015,04,16,06,59,3.90
2015,04,16,07,00,3.90
2015,04,16,07,01,3.90
2015,04,16,07,02,3.90
2015,04,16,07,03,4.00
2015,04,16,07,04,4.00
2015,04,16,07,05,4.10
2015,04,16,07,06,4.10
2015,04,16,07,07,4.10
2015,04,16,07,08,4.10
2015,04,16,07,09,4.20
2015,04,16,07,10,4.20
2015,04,16,07,11,4.20
2015,04,16,07,12,4.20
2015,04,16,07,13,4.30
2015,04,16,07,14,4.30
2015,04,16,07,15,4.40
2015,04,16,07,16,4.40
2015,04,16,07,17,4.50
2015,04,16,07,18,4.50
2015,04,16,07,19,4.60
2015,04,16,07,20,4.60
2015,04,16,07,21,4.70
2015,04,16,07,22,4.80
2015,04,16,07,23,4.80
2015,04,16,07,24,4.80
2015,04,16,07,25,4.90
2015,04,16,07,26,4.90
2015,04,16,07,27,5.00
2015,04,16,07,28,5.00
2015,04,16,07,29,5.10
2015,04,16,07,30,5.10
2015,04,16,07,31,5.20
2015,04,16,07,32,5.20
2015,04,16,07,33,5.30
2015,04,16,07,34,5.30
2015,04,16,07,35,5.40
2015,04,16,07,36,5.40
2015,04,16,07,37,5.50
2015,04,16,07,38,5.50
2015,04,16,07,39,5.50
2015,04,16,07,40,5.60
2015,04,16,07,41,5.60
2015,04,16,07,42,5.60
2015,04,16,07,43,5.60
2015,04,16,07,44,5.70
2015,04,16,07,45,5.70
2015,04,16,07,46,5.70
2015,04,16,07,47,5.80
2015,04,16,07,48,5.80
2015,04,16,07,49,5.90
2015,04,16,07,50,5.90
2015,04,16,07,51,6.00
2015,04,16,07,52,6.10
2015,04,16,07,53,6.20
2015,04,16,07,54,6.30
2015,04,16,07,55,6.40
2015,04,16,07,56,6.50
2015,04,16,07,57,6.60
2015,04,16,07,58,6.70
2015,04,16,07,59,6.80
2015,04,16,08,00,6.90
2015,04,16,08,01,7.00
2015,04,16,08,02,7.00
2015,04,16,08,03,7.10
2015,04,16,08,04,7.10
2015,04,16,08,05,7.20
2015,04,16,08,06,7.30
2015,04,16,08,07,7.40
2015,04,16,08,08,7.50
2015,04,16,08,09,7.60
2015,04,16,08,10,7.70
2015,04,16,08,11,7.80
2015,04,16,08,12,7.80
2015,04,16,08,13,7.80
2015,04,16,08,14,7.80
2015,04,16,08,15,7.80
2015,04,16,08,16,7.80
2015,04,16,08,17,7.90
2015,04,16,08,18,7.90
2015,04,16,08,19,7.90
2015,04,16,08,20,8.00
2015,04,16,08,21,8.00
2015,04,16,08,22,8.00
2015,04,16,08,23,8.10
2015,04,16,08,24,8.10
2015,04,16,08,25,8.20
2015,04,16,08,26,8.20
2015,04,16,08,27,8.20
2015,04,16,08,28,8.30
2015,04,16,08,29,8.40
2015,04,16,08,30,8.40
2015,04,16,08,31,8.50
2015,04,16,08,32,8.60
2015,04,16,08,33,8.60
2015,04,16,08,34,8.70
2015,04,16,08,35,8.70
2015,04,16,08,36,8.80
2015,04,16,08,37,8.90
2015,04,16,08,38,9.00
2015,04,16,08,39,9.00
2015,04,16,08,40,9.10
2015,04,16,08,41,9.10
2015,04,16,08,42,9.10
2015,04,16,08,43,9.10
2015,04,16,08,44,9.10
2015,04,16,08,45,9.00
2015,04,16,08,46,9.00
2015,04,16,08,47,8.90
2015,04,16,08,48,8.90
2015,04,16,08,49,8.90
2015,04,16,08,50,8.80
2015,04,16,08,51,8.80
2015,04,16,08,52,8.70
2015,04,16,08,53,8.80
2015,04,16,08,54,8.80
2015,04,16,08,55,8.90
2015,04,16,08,56,9.00
2015,04,16,08,57,9.10
2015,04,16,08,58,9.10
2015,04,16,08,59,9.00
2015,04,16,09,00,9.00
2015,04,16,09,01,9.00
2015,04,16,09,02,9.00
2015,04,16,09,03,9.10
2015,04,16,09,04,9.20
2015,04,16,09,05,9.30
2015,04,16,09,06,9.40
2015,04,16,09,07,9.50
2015,04,16,09,08,9.60
2015,04,16,09,09,9.60
2015,04,16,09,10,9.70
2015,04,16,09,11,9.70
2015,04,16,09,12,9.70
2015,04,16,09,13,9.80
2015,04,16,09,14,9.90
2015,04,16,09,15,9.90
2015,04,16,09,16,9.90
2015,04,16,09,17,10.00
2015,04,16,09,18,10.00
2015,04,16,09,19,10.10
2015,04,16,09,20,10.10
2015,04,16,09,21,10.10
2015,04,16,09,22,10.10
2015,04,16,09,23,10.10
2015,04,16,09,24,10.10
2015,04,16,09,25,10.10
2015,04,16,09,26,10.10
2015,04,16,09,27,10.10
2015,04,16,09,28,10.10
2015,04,16,09,29,10.20
2015,04,16,09,30,10.30
2015,04,16,09,31,10.30
2015,04,16,09,32,10.40
2015,04,16,09,33,10.40
2015,04,16,09,34,10.50
2015,04,16,09,35,10.60
2015,04,16,09,36,10.60
2015,04,16,09,37,10.70
2015,04,16,09,38,10.70
2015,04,16,09,39,10.80
2015,04,16,09,40,10.80
2015,04,16,09,41,10.90
2015,04,16,09,42,10.90
2015,04,16,09,43,10.90
2015,04,16,09,44,10.90
2015,04,16,09,45,10.90
2015,04,16,09,46,10.90
2015,04,16,09,47,11.00
2015,04,16,09,48,11.00
2015,04,16,09,49,11.10
2015,04,16,09,50,11.10
2015,04,16,09,51,11.00
2015,04,16,09,52,11.00
2015,04,16,09,53,11.10
2015,04,16,09,54,11.10
2015,04,16,09,55,11.10
2015,04,16,09,56,11.10
2015,04,16,09,57,11.10
2015,04,16,09,58,11.10
2015,04,16,09,59,11.20
2015,04,16,10,00,11.30
2015,04,16,10,01,11.30
2015,04,16,10,02,11.30
2015,04,16,10,03,11.40
2015,04,16,10,04,11.40
2015,04,16,10,05,11.50
2015,04,16,10,06,11.60
2015,04,16,10,07,11.60
2015,04,16,10,08,11.70
2015,04,16,10,09,11.80
2015,04,16,10,10,11.90
2015,04,16,10,11,12.00
2015,04,16,10,12,12.00
2015,04,16,10,13,12.10
2015,04,16,10,14,12.10
2015,04,16,10,15,12.10
2015,04,16,10,16,12.10
2015,04,16,10,17,12.10
2015,04,16,10,18,12.10
2015,04,16,10,19,12.00
2015,04,16,10,20,11.90
2015,04,16,10,21,11.80
2015,04,16,10,22,11.70
2015,04,16,10,23,11.70
2015,04,16,10,24,11.80
2015,04,16,10,25,11.80
2015,04,16,10,26,11.80
2015,04,16,10,27,11.90
2015,04,16,10,28,12.00
2015,04,16,10,29,12.10
2015,04,16,10,30,12.20
2015,04,16,10,31,12.30
2015,04,16,10,32,12.40
2015,04,16,10,33,12.50
2015,04,16,10,34,12.50
2015,04,16,10,35,12.60
2015,04,16,10,36,12.60
2015,04,16,10,37,12.50
2015,04,16,10,38,12.40
2015,04,16,10,39,12.30
2015,04,16,10,40,12.30
2015,04,16,10,41,12.30
2015,04,16,10,42,12.30
2015,04,16,10,43,12.30
2015,04,16,10,44,12.30
2015,04,16,10,45,12.30
2015,04,16,10,46,12.30
2015,04,16,10,47,12.30
2015,04,16,10,48,12.30
2015,04,16,10,49,12.30
2015,04,16,10,50,12.30
2015,04,16,10,51,12.40
2015,04,16,10,52,12.50
2015,04,16,10,53,12.50
2015,04,16,10,54,12.60
2015,04,16,10,55,12.60
2015,04,16,10,56,12.60
2015,04,16,10,57,12.60
2015,04,16,10,58,12.60
2015,04,16,10,59,12.60
2015,04,16,11,00,12.60
2015,04,16,11,01,12.60
2015,04,16,11,02,12.70
2015,04,16,11,03,12.80
2015,04,16,11,04,12.80
2015,04,16,11,05,12.90
2015,04,16,11,06,12.90
2015,04,16,11,07,12.80
2015,04,16,11,08,12.80
2015,04,16,11,09,12.80
2015,04,16,11,10,12.70
2015,04,16,11,11,12.60
2015,04,16,11,12,12.70
2015,04,16,11,13,12.70
2015,04,16,11,14,12.80
2015,04,16,11,15,12.80
2015,04,16,11,16,12.70
2015,04,16,11,17,12.60
2015,04,16,11,18,12.60
2015,04,16,11,19,12.70
2015,04,16,11,20,12.70
2015,04,16,11,21,12.70
2015,04,16,11,22,12.70
2015,04,16,11,23,12.70
2015,04,16,11,24,12.70
2015,04,16,11,25,12.60
2015,04,16,11,26,12.60
2015,04,16,11,27,12.60
2015,04,16,11,28,12.60
2015,04,16,11,29,12.60
2015,04,16,11,30,12.60
2015,04,16,11,31,12.70
2015,04,16,11,32,12.70
2015,04,16,11,33,12.70
2015,04,16,11,34,12.60
2015,04,16,11,35,12.50
2015,04,16,11,36,12.50
2015,04,16,11,37,12.50
2015,04,16,11,38,12.60
2015,04,16,11,39,12.60
2015,04,16,11,40,12.60
2015,04,16,11,41,12.60
2015,04,16,11,42,12.70
2015,04,16,11,43,12.80
2015,04,16,11,44,13.00
2015,04,16,11,45,13.10
2015,04,16,11,46,13.30
2015,04,16,11,47,13.30
2015,04,16,11,48,13.20
2015,04,16,11,49,13.20
2015,04,16,11,50,13.20
2015,04,16,11,51,13.30
2015,04,16,11,52,13.40
2015,04,16,11,53,13.40
2015,04,16,11,54,13.40
2015,04,16,11,55,13.40
2015,04,16,11,56,13.40
2015,04,16,11,57,13.40
2015,04,16,11,58,13.50
2015,04,16,11,59,13.50
2015,04,16,12,00,13.50
2015,04,16,12,01,13.40
2015,04,16,12,02,13.40
2015,04,16,12,03,13.30
2015,04,16,12,04,13.20
2015,04,16,12,05,13.10
2015,04,16,12,06,13.00
2015,04,16,12,07,13.00
2015,04,16,12,08,13.00
2015,04,16,12,09,13.10
2015,04,16,12,10,13.10
2015,04,16,12,11,13.00
2015,04,16,12,12,13.00
2015,04,16,12,13,12.90
2015,04,16,12,14,13.00
2015,04,16,12,15,13.10
2015,04,16,12,16,13.10
2015,04,16,12,17,13.20
2015,04,16,12,18,13.20
2015,04,16,12,19,13.30
2015,04,16,12,20,13.30
2015,04,16,12,21,13.40
2015,04,16,12,22,13.50
2015,04,16,12,23,13.50
2015,04,16,12,24,13.60
2015,04,16,12,25,13.60
2015,04,16,12,26,13.60
2015,04,16,12,27,13.60
2015,04,16,12,28,13.50
2015,04,16,12,29,13.60
2015,04,16,12,30,13.70
2015,04,16,12,31,13.70
2015,04,16,12,32,13.80
2015,04,16,12,33,13.70
2015,04,16,12,34,13.70
2015,04,16,12,35,13.70
2015,04,16,12,36,13.70
2015,04,16,12,37,13.70
2015,04,16,12,38,13.80
2015,04,16,12,39,13.90
2015,04,16,12,40,14.10
2015,04,16,12,41,14.10
2015,04,16,12,42,14.10
2015,04,16,12,43,14.20
2015,04,16,12,44,14.20
2015,04,16,12,45,14.30
2015,04,16,12,46,14.30
2015,04,16,12,47,14.30
2015,04,16,12,48,14.40
2015,04,16,12,49,14.40
2015,04,16,12,50,14.40
2015,04,16,12,51,14.40
2015,04,16,12,52,14.40
2015,04,16,12,53,14.40
2015,04,16,12,54,14.40
2015,04,16,12,55,14.50
2015,04,16,12,56,14.50
2015,04,16,12,57,14.60
2015,04,16,12,58,14.60
2015,04,16,12,59,14.50
2015,04,16,13,00,14.50
2015,04,16,13,01,14.50
2015,04,16,13,02,14.60
2015,04,16,13,03,14.60
2015,04,16,13,04,14.70
2015,04,16,13,05,14.80
2015,04,16,13,06,14.80
2015,04,16,13,07,14.80
2015,04,16,13,08,14.70
2015,04,16,13,09,14.60
2015,04,16,13,10,14.50
2015,04,16,13,11,14.50
2015,04,16,13,12,14.50
2015,04,16,13,13,14.50
2015,04,16,13,14,14.50
2015,04,16,13,15,14.50
2015,04,16,13,16,14.60
2015,04,16,13,17,14.70
2015,04,16,13,18,14.70
2015,04,16,13,19,14.80
2015,04,16,13,20,14.70
2015,04,16,13,21,14.70
2015,04,16,13,22,14.70
2015,04,16,13,23,14.80
2015,04,16,13,24,14.90
2015,04,16,13,25,15.10
2015,04,16,13,26,15.30
2015,04,16,13,27,15.30
2015,04,16,13,28,15.50
2015,04,16,13,29,15.60
2015,04,16,13,30,15.70
2015,04,16,13,31,15.80
2015,04,16,13,32,15.80
2015,04,16,13,33,15.90
2015,04,16,13,34,15.90
2015,04,16,13,35,15.90
2015,04,16,13,36,15.90
2015,04,16,13,37,15.90
2015,04,16,13,38,16.00
2015,04,16,13,39,16.00
2015,04,16,13,40,16.10
2015,04,16,13,41,16.10
2015,04,16,13,42,16.00
2015,04,16,13,43,15.90
2015,04,16,13,44,15.90
2015,04,16,13,45,15.90
2015,04,16,13,46,15.80
2015,04,16,13,47,15.80
2015,04,16,13,48,15.90
2015,04,16,13,49,15.90
2015,04,16,13,50,16.00
2015,04,16,13,51,16.10
2015,04,16,13,52,16.20
2015,04,16,13,53,16.20
2015,04,16,13,54,16.30
2015,04,16,13,55,16.30
2015,04,16,13,56,16.40
2015,04,16,13,57,16.40
2015,04,16,13,58,16.40
2015,04,16,13,59,16.30
2015,04,16,14,00,16.30
2015,04,16,14,01,16.20
2015,04,16,14,02,16.20
2015,04,16,14,03,16.20
2015,04,16,14,04,16.30
2015,04,16,14,05,16.30
2015,04,16,14,06,16.30
2015,04,16,14,07,16.40
2015,04,16,14,08,16.30
2015,04,16,14,09,16.20
2015,04,16,14,10,16.20
2015,04,16,14,11,16.20
2015,04,16,14,12,16.20
2015,04,16,14,13,16.10
2015,04,16,14,14,16.00
2015,04,16,14,15,16.00
2015,04,16,14,16,15.90
2015,04,16,14,17,16.00
2015,04,16,14,18,16.10
2015,04,16,14,19,16.10
2015,04,16,14,20,16.20
2015,04,16,14,21,16.30
2015,04,16,14,22,16.40
2015,04,16,14,23,16.40
2015,04,16,14,24,16.40
2015,04,16,14,25,16.40
2015,04,16,14,26,16.40
2015,04,16,14,27,16.40
2015,04,16,14,28,16.40
2015,04,16,14,29,16.30
2015,04,16,14,30,16.30
2015,04,16,14,31,16.20
2015,04,16,14,32,16.10
2015,04,16,14,33,16.10
2015,04,16,14,34,16.10
2015,04,16,14,35,16.10
2015,04,16,14,36,16.20
2015,04,16,14,37,16.30
2015,04,16,14,38,16.40
2015,04,16,14,39,16.40
2015,04,16,14,40,16.40
2015,04,16,14,41,16.30
2015,04,16,14,42,16.30
2015,04,16,14,43,16.30
2015,04,16,14,44,16.30
2015,04,16,14,45,16.40
2015,04,16,14,46,16.40
2015,04,16,14,47,16.40
2015,04,16,14,48,16.40
2015,04,16,14,49,16.40
2015,04,16,14,50,16.30
2015,04,16,14,51,16.30
2015,04,16,14,52,16.20
2015,04,16,14,53,16.20
2015,04,16,14,54,16.20
2015,04,16,14,55,16.20
2015,04,16,14,56,16.10
2015,04,16,14,57,16.00
2015,04,16,14,58,15.80
2015,04,16,14,59,15.80
2015,04,16,15,00,15.80
2015,04,16,15,01,15.80
2015,04,16,15,02,15.80
2015,04,16,15,03,15.90
2015,04,16,15,04,15.90
2015,04,16,15,05,15.90
2015,04,16,15,06,15.80
2015,04,16,15,07,15.80
2015,04,16,15,08,15.80
2015,04,16,15,09,15.70
2015,04,16,15,10,15.70
2015,04,16,15,11,15.70
2015,04,16,15,12,15.60
2015,04,16,15,13,15.70
2015,04,16,15,14,15.80
2015,04,16,15,15,15.90
2015,04,16,15,16,15.90
2015,04,16,15,17,15.90
2015,04,16,15,18,15.90
2015,04,16,15,19,15.90
2015,04,16,15,20,16.00
2015,04,16,15,21,16.00
2015,04,16,15,22,16.00
2015,04,16,15,23,16.10
2015,04,16,15,24,16.10
2015,04,16,15,25,16.10
2015,04,16,15,26,16.00
2015,04,16,15,27,16.00
2015,04,16,15,28,16.10
2015,04,16,15,29,16.10
2015,04,16,15,30,16.10
2015,04,16,15,31,16.10
2015,04,16,15,32,16.10
2015,04,16,15,33,16.10
2015,04,16,15,34,16.10
2015,04,16,15,35,16.10
2015,04,16,15,36,16.10
2015,04,16,15,37,16.10
2015,04,16,15,38,16.10
2015,04,16,15,39,16.10
2015,04,16,15,40,16.10
2015,04,16,15,41,16.10
2015,04,16,15,42,16.10
2015,04,16,15,43,16.10
2015,04,16,15,44,16.10
2015,04,16,15,45,16.20
2015,04,16,15,46,16.30
2015,04,16,15,47,16.30
2015,04,16,15,48,16.30
2015,04,16,15,49,16.30
2015,04,16,15,50,16.20
2015,04,16,15,51,16.10
2015,04,16,15,52,16.10
2015,04,16,15,53,16.00
2015,04,16,15,54,15.90
2015,04,16,15,55,15.90
2015,04,16,15,56,15.90
2015,04,16,15,57,16.00
2015,04,16,15,58,16.10
2015,04,16,15,59,16.10
2015,04,16,16,00,16.20
2015,04,16,16,01,16.30
2015,04,16,16,02,16.20
2015,04,16,16,03,16.10
2015,04,16,16,04,16.10
2015,04,16,16,05,16.00
2015,04,16,16,06,15.90
2015,04,16,16,07,15.90
2015,04,16,16,08,15.90
2015,04,16,16,09,15.90
2015,04,16,16,10,15.80
2015,04,16,16,11,15.80
2015,04,16,16,12,15.90
2015,04,16,16,13,15.90
2015,04,16,16,14,16.00
2015,04,16,16,15,16.00
2015,04,16,16,16,16.10
2015,04,16,16,17,16.20
2015,04,16,16,18,16.20
2015,04,16,16,19,16.20
2015,04,16,16,20,16.30
2015,04,16,16,21,16.40
2015,04,16,16,22,16.50
2015,04,16,16,23,16.60
2015,04,16,16,24,16.60
2015,04,16,16,25,16.50
2015,04,16,16,26,16.50
2015,04,16,16,27,16.60
2015,04,16,16,28,16.60
2015,04,16,16,29,16.70
2015,04,16,16,30,16.80
2015,04,16,16,31,16.80
2015,04,16,16,32,16.90
2015,04,16,16,33,16.90
2015,04,16,16,34,17.00
2015,04,16,16,35,17.10
2015,04,16,16,36,17.10
2015,04,16,16,37,17.10
2015,04,16,16,38,17.10
2015,04,16,16,39,17.10
2015,04,16,16,40,17.10
2015,04,16,16,41,17.10
2015,04,16,16,42,17.10
2015,04,16,16,43,17.20
2015,04,16,16,44,17.30
2015,04,16,16,45,17.30
2015,04,16,16,46,17.40
2015,04,16,16,47,17.40
2015,04,16,16,48,17.50
2015,04,16,16,49,17.60
2015,04,16,16,50,17.60
2015,04,16,16,51,17.50
2015,04,16,16,52,17.40
2015,04,16,16,53,17.40
2015,04,16,16,54,17.30
2015,04,16,16,55,17.30
2015,04,16,16,56,17.30
2015,04,16,16,57,17.30
2015,04,16,16,58,17.40
2015,04,16,16,59,17.40
2015,04,16,17,00,17.40
2015,04,16,17,01,17.40
2015,04,16,17,02,17.40
2015,04,16,17,03,17.50
2015,04,16,17,04,17.60
2015,04,16,17,05,17.60
2015,04,16,17,06,17.50
2015,04,16,17,07,17.40
2015,04,16,17,08,17.40
2015,04,16,17,09,17.30
2015,04,16,17,10,17.30
2015,04,16,17,11,17.40
2015,04,16,17,12,17.40
2015,04,16,17,13,17.40
2015,04,16,17,14,17.50
2015,04,16,17,15,17.50
2015,04,16,17,16,17.50
2015,04,16,17,17,17.60
2015,04,16,17,18,17.60
2015,04,16,17,19,17.60
2015,04,16,17,20,17.50
2015,04,16,17,21,17.50
2015,04,16,17,22,17.50
2015,04,16,17,23,17.50
2015,04,16,17,24,17.50
2015,04,16,17,25,17.50
2015,04,16,17,26,17.50
2015,04,16,17,27,17.40
2015,04,16,17,28,17.40
2015,04,16,17,29,17.50
2015,04,16,17,30,17.50
2015,04,16,17,31,17.40
2015,04,16,17,32,17.40
2015,04,16,17,33,17.40
2015,04,16,17,34,17.40
2015,04,16,17,35,17.40
2015,04,16,17,36,17.40
2015,04,16,17,37,17.40
2015,04,16,17,38,17.40
2015,04,16,17,39,17.40
2015,04,16,17,40,17.40
2015,04,16,17,41,17.40
2015,04,16,17,42,17.50
2015,04,16,17,43,17.40